Theta_e
290 290 290 290 290 291 291 291 292 292 291 290 290 290 290 290 291 292 291 291 292 292 293 293 294 294 296 296 296 297 297 297 298 301 303 303 306 308
289 288 289 290 290 290 290 290 290 290 290 289 290 290 289 290 290 290 289 290 290 292 292 292 293 293 293 294 294 295 294 295 296 297 299 300 303 305
288 287 288 289 289 290 289 289 289 289 289 289 288 288 289 288 288 289 289 289 290 290 290 290 290 292 293 293 293 293 295 296 296 297 298 300 301 304
287 286 287 288 288 288 289 288 288 288 288 288 288 289 288 287 288 288 289 289 290 288 288 288 291 291 291 292 293 293 293 294 295 296 298 299 300 301
286 286 286 287 288 288 288 288 288 288 288 289 288 287 288 288 288 288 289 288 287 287 286 287 288 289 289 290 291 292 293 293 294 295 296 298 299 300
286 285 286 287 288 287 288 288 288 288 288 288 288 288 287 287 288 288 286 286 285 285 286 286 288 288 288 289 290 291 291 293 294 294 294 297 295 298
285 286 287 287 287 287 288 288 288 287 288 288 288 287 287 286 286 286 285 285 285 285 286 287 286 286 286 287 288 290 291 292 293 294 295 296 296 296
285 286 286 286 286 287 287 287 287 288 287 287 287 286 285 285 285 285 285 285 285 286 286 285 285 286 286 287 288 291 292 293 293 293 294 295 295 297
286 285 285 285 285 285 286 287 287 286 287 286 285 284 284 285 285 285 285 285 285 285 284 285 285 286 286 286 287 288 290 291 291 291 293 294 295 296
285 285 285 285 285 286 286 287 286 285 285 284 284 284 285 285 285 284 284 284 284 284 284 285 285 286 285 285 286 287 288 289 290 291 292 293 294 295
286 285 285 285 285 286 286 286 285 284 283 283 284 284 284 283 284 283 283 283 283 283 283 283 284 284 284 284 285 286 288 290 290 290 291 294 295 296
285 285 284 285 285 286 286 285 284 283 283 284 283 282 282 282 282 282 282 282 283 283 282 283 283 284 284 285 287 286 287 287 288 288 290 292 294 295
285 284 284 284 285 285 285 283 283 284 283 282 281 281 282 282 281 281 281 281 282 282 283 283 283 284 284 285 285 286 287 287 287 290 292 293 294 295
284 283 283 285 284 284 283 282 283 283 281 281 281 281 281 280 281 281 282 283 284 283 285 285 284 285 285 285 286 286 286 287 289 291 292 296 299 298
283 283 284 283 282 281 281 281 281 280 280 280 281 280 280 280 281 282 283 284 285 285 285 285 285 285 285 285 285 285 285 289 291 292 294 298 304 304
283 284 282 281 280 280 280 280 280 280 280 280 280 280 280 281 281 283 283 283 284 285 284 283 283 284 284 284 285 287 288 288 291 294 296 300 303 304
283 282 280 279 279 279 279 279 280 279 280 279 279 280 280 281 283 283 283 283 283 284 283 283 283 284 285 284 285 287 289 290 292 295 296 297 298 301
281 279 279 279 279 279 279 279 279 279 279 279 280 281 281 282 282 283 283 283 283 284 283 283 283 286 286 285 286 288 290 292 293 295 295 296 295 296
279 279 279 279 278 279 279 279 279 279 280 280 281 282 282 282 282 282 283 283 283 284 284 283 283 284 284 284 287 288 291 292 294 295 295 295 295 295
279 278 278 278 278 279 279 279 279 280 280 281 282 282 282 282 282 283 283 283 284 284 284 284 285 285 284 284 286 288 291 293 293 294 294 294 293 294
278 278 278 278 279 279 278 279 279 280 281 282 282 282 283 282 283 284 284 285 285 285 285 284 284 286 286 287 287 289 290 292 293 293 293 293 293 293
277 277 278 278 279 279 279 279 280 281 282 283 283 283 283 283 284 284 284 285 286 285 285 284 285 287 287 287 287 289 290 291 292 292 292 292 292 291
277 278 278 279 280 279 279 280 281 281 282 283 283 284 284 285 285 285 285 285 286 286 285 284 284 287 287 287 288 289 290 290 291 292 291 292 292 291
Wind_Speed
27 28 31 31 32 31 32 33 34 43 46 45 41 39 36 38 37 33 41 39 38 40 40 41 39 40 40 42 42 42 42 43 43 39 39 39 37 34
28 33 32 32 33 34 32 32 33 35 46 48 44 44 46 40 40 38 39 40 41 36 37 39 41 41 43 44 43 42 44 43 42 42 40 39 39 34
34 34 33 34 34 33 35 34 35 33 36 48 49 47 46 50 52 40 39 40 40 34 37 42 43 41 41 42 44 44 42 41 40 40 39 37 36 37
39 36 35 34 36 34 33 36 34 36 39 41 47 45 47 50 45 49 40 41 31 39 39 46 40 38 42 41 41 43 45 43 40 38 36 35 36 38
38 37 36 34 34 34 35 37 40 38 36 36 46 49 45 45 49 47 42 36 36 39 47 38 38 38 39 39 40 40 41 43 42 39 38 37 32 35
39 36 31 30 33 36 38 38 34 34 36 41 43 43 43 50 43 35 43 43 48 44 42 42 36 39 39 38 36 38 39 36 34 33 33 30 33 35
39 30 31 32 32 33 34 36 38 42 43 38 40 43 44 44 39 41 46 49 49 43 43 39 41 42 43 38 37 34 32 32 32 31 32 30 32 36
35 34 34 34 33 33 35 38 37 39 41 44 41 44 48 46 45 43 43 48 51 37 35 56 42 45 44 39 35 31 33 32 32 33 32 33 31 32
33 36 36 35 37 41 39 39 40 37 37 42 44 44 47 46 46 48 46 44 44 45 44 48 40 42 39 43 40 39 34 34 35 36 34 33 34 33
36 35 35 39 41 38 41 43 45 45 41 40 40 42 42 45 44 43 44 50 49 42 34 42 41 41 46 44 37 38 38 36 32 33 30 32 34 33
35 33 35 40 38 38 41 46 45 42 46 38 37 38 40 39 37 40 42 41 44 39 36 43 39 43 46 44 39 27 28 22 30 27 29 27 24 26
37 41 39 37 39 39 40 44 40 45 43 42 44 46 40 41 35 34 39 41 42 44 38 38 41 40 40 33 15 25 34 33 30 31 27 27 27 31
42 45 43 39 39 39 40 37 38 41 40 43 42 42 41 39 41 39 37 39 43 43 40 36 39 40 35 36 33 36 28 36 34 25 22 26 33 38
40 44 44 40 40 37 35 36 33 35 38 41 41 39 40 42 39 37 35 34 35 39 35 32 38 38 38 36 31 29 37 28 18 20 20 20 28 34
41 39 39 39 35 37 33 33 32 37 39 41 38 42 42 39 38 37 35 33 33 28 24 22 21 18 15 24 27 32 28 21 15 16 6 5 13 19
42 40 37 35 34 33 36 37 38 37 36 37 39 41 40 39 38 35 38 36 36 29 28 25 22 19 17 11 21 26 15 14 20 7 8 6 15 21
39 37 40 37 38 38 38 40 40 40 40 40 40 40 38 36 34 33 34 35 30 29 32 32 26 13 11 9 19 18 15 11 7 13 19 22 24 21
34 36 35 36 36 38 40 42 43 41 41 39 38 36 35 33 34 33 33 34 29 30 29 29 24 14 8 3 9 13 7 9 11 19 28 35 38 35
33 34 35 36 38 39 41 42 42 42 38 36 36 36 35 35 36 37 33 33 27 28 25 22 22 20 16 14 17 10 11 16 20 27 33 37 41 39
35 34 36 37 39 41 42 41 41 39 36 37 36 36 36 38 37 34 31 28 24 25 22 20 18 18 14 13 17 16 15 26 31 35 39 41 41 38
36 36 35 38 39 41 40 38 37 37 35 36 37 37 37 37 32 27 27 25 23 23 19 19 15 10 14 23 24 24 23 26 31 36 37 41 42 44
35 35 37 36 37 38 37 36 37 35 35 37 37 37 36 32 27 26 25 23 22 17 14 12 13 15 22 26 26 26 25 24 26 30 29 30 27 29
35 36 36 35 37 36 36 35 34 32 35 35 36 36 34 29 24 23 21 19 15 14 11 12 13 14 20 25 25 25 24 25 24 24 28 31 35 36
Wind_Direction
315 308 310 305 306 303 299 301 301 303 304 305 306 310 304 309 305 299 300 303 297 297 294 296 294 292 289 288 286 286 285 285 281 284 280 279 277 272
308 312 310 308 305 303 303 300 297 298 298 302 306 305 307 305 302 303 301 297 300 296 296 298 295 293 291 287 286 285 285 284 282 279 276 274 273 271
312 313 308 306 307 302 303 302 300 300 296 297 301 305 303 308 309 307 301 301 296 293 298 301 297 290 287 286 286 285 283 282 283 278 275 271 270 266
313 313 310 307 305 307 304 303 301 297 296 295 299 302 304 309 306 305 302 300 288 296 302 300 292 288 291 288 287 286 283 281 282 276 273 268 266 270
315 315 311 311 309 308 306 303 302 299 294 294 297 302 303 303 304 300 301 298 299 298 305 296 295 294 292 288 286 284 284 280 281 277 271 267 269 266
316 317 316 314 310 308 307 306 305 303 302 299 296 299 304 303 307 305 307 303 304 306 300 298 297 293 292 289 288 284 281 284 281 281 282 272 266 268
318 321 320 312 307 306 306 308 308 307 301 304 307 302 306 315 308 308 302 305 303 304 301 299 302 299 299 297 294 289 287 283 282 278 278 273 265 254
323 320 316 313 313 309 306 305 303 305 307 306 311 309 308 306 305 300 301 303 302 307 303 300 301 299 301 300 300 291 289 283 285 283 276 271 266 260
317 317 315 315 314 315 313 308 307 310 306 307 304 303 302 304 310 303 300 299 297 300 303 296 300 295 297 298 297 293 283 283 283 283 278 271 265 254
317 316 314 314 318 316 311 311 308 314 312 308 304 302 304 305 304 303 301 298 299 300 300 291 300 293 299 301 296 293 287 285 282 275 269 264 258 249
316 314 315 317 317 315 312 315 318 310 317 310 308 305 304 303 302 303 302 302 299 300 300 297 298 294 300 303 307 301 286 287 288 284 281 263 253 247
318 319 322 319 317 314 318 317 316 318 316 317 311 311 315 318 312 306 303 298 298 299 300 295 296 300 299 303 298 295 299 302 294 287 275 265 255 247
322 323 324 321 317 320 317 318 316 315 316 313 316 317 316 316 315 314 312 306 298 294 309 298 295 295 288 292 298 307 297 303 301 289 270 257 241 235
322 320 320 320 321 320 318 319 318 316 318 320 317 317 317 319 325 328 329 326 323 313 318 313 293 296 291 291 296 299 308 309 308 310 302 267 237 225
321 321 319 322 321 320 325 321 322 329 321 321 318 319 322 330 335 338 340 340 335 343 338 330 323 317 300 304 312 314 316 325 341 330 321 146 195 198
328 325 324 323 326 326 329 333 333 327 323 320 320 325 333 335 339 345 345 345 337 339 346 347 330 294 296 300 328 334 334 321 338 18 61 135 160 183
325 324 329 331 331 329 330 332 330 329 328 329 329 334 338 341 343 348 347 341 348 341 338 348 349 324 283 280 328 333 343 357 14 87 95 101 107 133
326 331 329 330 328 327 327 329 330 330 333 337 341 342 341 341 340 342 343 338 339 343 349 354 357 22 26 359 343 355 43 75 86 99 98 95 88 93
334 332 328 328 326 328 330 329 328 335 342 345 345 345 346 346 342 341 335 340 347 350 358 8 26 39 45 32 43 45 91 96 100 98 101 101 100 99
335 330 328 328 330 331 331 331 335 342 346 347 348 350 350 346 341 340 342 346 351 356 4 12 18 25 34 44 49 54 102 103 101 100 97 98 97 104
331 330 331 332 334 336 335 338 342 345 345 349 350 351 353 348 346 355 357 1 7 8 9 12 15 33 92 90 80 86 89 103 109 108 106 101 97 99
332 334 334 336 339 340 341 342 344 346 348 349 352 353 352 349 352 358 358 1 13 16 20 35 51 83 90 91 90 94 94 99 106 103 103 108 105 101
337 336 337 338 342 343 344 343 342 343 347 349 352 351 349 351 356 1 360 7 20 22 35 59 68 88 90 91 94 95 97 94 95 97 84 101 106 105